星链-32291 (STARLINK-32291)

导读

STARLINK-32291是美国SpaceX公司星链(Starlink)星座的一颗互联网通信卫星,于2024年12月29日由美国发射升空。星链项目旨在构建全球覆盖的低轨卫星互联网系统,为全球用户提供低成本、高性能的宽带互联网服务。作为星链星座的一员,该卫星运行在近地轨道,通过星间链路和地面站协同工作,补充和扩展星座网络的覆盖范围与通信能力,助力全球偏远地区网络覆盖,推动全球互联基础设施建设。

基本信息
目录编号:
62442
目录名称:
STARLINK-32291
国际标识:
2024-251L
轨道中心:
EARTH
卫星名称:
星链-32291
卫星全名:
星链-32291 (STARLINK-32291)
卫星状态:
在轨 (已飞行614 天)
发射日期:
2024-12-29 UTC
国别 :
美国 (US)
星等 :
--
轨道信息
数据来源 国际轨道数据 AOE轨道数据
星历时间 2026-09-03T16:28:50+0800
18小时前
查看轨道信息
2026-08-31T23:00:00+0800
3天前
查看轨道信息
半长轴 6840.834km 6840.724km
偏心率 0.000113 0.0001239
轨道倾角 53.161° 53.158°
近地点辐角 80.547° 51.718°
升交点赤经 229.780° 242.534°
平近点角 279.566° 349.081°
近地点 461.923km 461.739km
远地点 463.471km 463.435km
周期 93.848分钟 93.845分钟
每日圈数 15.344024 15.344393
详细信息
固有亮度:
5
最大亮度:
2.5
卫星平台:
Starlink V1.0
覆盖范围:
全球
运营商:
太空探索技术公司
运营商所在国:
美国
制造商(研发单位):
太空探索技术公司
制造商所在国:
美国
使用方式:
暂无
卫星简介
Starlink 计划是 SpaceX 推出的全球卫星互联网项目,通过发射低轨道卫星,为全球尤其是偏远地区提供高速、低延迟的互联网服务。自 2019 年起,Starlink 已部署数千颗卫星,旨在缩小全球数字鸿沟,推动互联网普及。该项目还为军事、航空等行业提供通信支持,带来广泛经济效益。
2D轨道图
3D轨道图
轨道高度分析图
轨道倾角分析图
轨道综合分析图
查看轨道综合分析图
交会数据列表
事件ID 空间交会对象 最接近时刻(TCA) 交会距离 交会风险概率(CRP) 交会风险指数(CRI) 操作
CDM_260831-023806-244206-588121
2026-08-31T
02:38:36+0000
1.347 km
极远距离
4.350632E-6 低风险 0.48
CDM_260830-171705-113706-244221
2026-08-30T
17:17:57+0000
1.280 km
极远距离
3.202976E-6 低风险 0.45
CDM_260831-001506-244206-897221
2026-08-31T
00:15:10+0000
1.995 km
极远距离
1.860045E-6 低风险 0.4
CDM_260831-001706-244206-588121
2026-08-31T
00:17:56+0000
1.855 km
极远距离
1.676712E-6 低风险 0.39
CDM_260830-163105-113706-244221
2026-08-30T
16:31:04+0000
1.860 km
极远距离
1.085796E-6 低风险 0.36
CDM_260903-134005-284406-244221
2026-09-03T
13:40:17+0000
2.887 km
极远距离
9.659215E-7 极低风险 0.35
CDM_260831-010605-112006-244221
2026-08-31T
01:06:31+0000
2.999 km
极远距离
5.216177E-7 极低风险 0.29